Regional Weather Roundup
Issued by NWS

Home | Current Version | Previous Version | Text Only | Print | Product List | Glossary Off
Versions: 1 2 3 4 5 6 7 8 9 10 11 12 13 14 15 16 17 18 19 20 21 22 23 24 25 26 27 28 29 30 31 32 33 34 35 36 37 38 39 40 41 42 43 44 45 46 47 48 49 50

000
ASUS43 KIND 240109
RWRIN

WEATHER ROUNDUP FOR INDIANA
NATIONAL WEATHER SERVICE INDIANAPOLIS IN
900 PM EDT SUN JUL 23 2017

NOTE: "FAIR" INDICATES FEW OR NO CLOUDS BELOW 12,000 FEET WITH NO
SIGNIFICANT WEATHER AND/OR OBSTRUCTIONS TO VISIBILITY.

* - STATION DOES NOT REPORT WEATHER SUCH AS PRECIPITATION OR FOG.

+ - STATION NOT QUALITY CONTROLLED BY THE NATIONAL WEATHER SERVICE.
    USE DATA WITH CAUTION...ESPECIALLY DEWPOINT AND RELATIVE
    HUMIDITY OBSERVATIONS.

INZ001>003-010>013-019-020-240200-
NORTHWEST INDIANA

CITY           SKY/WX    TMP DP  RH WIND       PRES   REMARKS
GARY /AIRPORT/ PTCLDY    77  68  73 NE5       29.82R
KNOX *+        CLOUDY    70  63  78 N7        29.80R
LA PORTE +     CLOUDY    71  66  84 N3        29.82S
MICHIGAN CITY+ CLOUDY    73  66  78 N5        29.82R
MONTICELLO +   CLEAR     79  73  80 W3        29.80F
RENSSELAER +   CLEAR     81  68  65 W14G24    29.81R
VALPARAISO     MOCLDY    74  66  76 N5        29.81R

$$

LMZ046-743>745-240200-
SOUTHERN LAKE MICHIGAN

STATION/POSITION TIME  TEMP    WIND        PRES    WAVE
                       AIR SEA DIR/SP/G            HT
                 (UTC) (F)     (DEG/KT/KT) (MB)    (FT)
BURNS HARBOR     0040   76      10/  6/  8 1010.2S
MICHIGAN CITY    0040   75      10/  9/ 10   N/A
5NW MICH CITY    0100   76 76   10/  6/  8   N/A     1

$$

INZ004-005-014>016-021>024-240200-
NORTH CENTRAL INDIANA

CITY           SKY/WX    TMP DP  RH WIND       PRES   REMARKS
GOSHEN         PTCLDY    76  64  66 S5        29.78S
LOGANSPORT +   PTCLDY    75  72  88 E3        29.79F
PERU/GRISSOM   MOCLDY    78  69  73 N10       29.80S THUNDER
ROCHESTER +    CLOUDY   N/A N/A N/A W5        29.77F
SOUTH BEND     CLOUDY    76  66  71 NW7       29.82R
WARSAW +       DRIZZLE   77  66  69 E5        29.76F

$$

INZ006>009-017-018-025>027-240200-
NORTHEAST INDIANA

CITY           SKY/WX    TMP DP  RH WIND       PRES   REMARKS
AUBURN +       CLEAR     73  68  83 CALM      29.78F
FORT WAYNE     PTCLDY    76  69  79 W7        29.80R
HUNTINGTON +   CLEAR     75  69  82 W7        29.80S
KENDALLVILLE + CLEAR     74  68  80 CALM      29.79S

$$

INZ028-029-035-036-043>045-051>053-240200-
WEST CENTRAL INDIANA

CITY           SKY/WX    TMP DP  RH WIND       PRES   REMARKS
GREENCASTLE +  PTCLDY    77  68  73 CALM      29.83F
LAFAYETTE      CLOUDY    76  73  91 W3        29.80S
TERRE HAUTE    CLEAR     80  72  76 W3        29.82F

$$

INZ030>032-037>040-046>048-054>057-064-065-240200-
CENTRAL INDIANA

CITY           SKY/WX    TMP DP  RH WIND       PRES   REMARKS
CP ATTERBURY + CLEAR     73  70  88 CALM      29.83S
COLUMBUS       PTCLDY   N/A N/A N/A SW3       29.81F
FRANKFORT +    CLOUDY    80  73  81 W3        29.83F
GREENWOOD *+   PTCLDY   N/A N/A N/A W3        29.83S
INDIANAPOLIS   PTCLDY    77  73  87 SW5       29.81F
-EAGLE CREEK   CLEAR     78  72  81 W5        29.82S
KOKOMO +         N/A     77  72  84 MISG      29.83R
MARION +       PTCLDY    73  70  88 W5        29.83R
MT COMFORT *+  CLEAR     75  73  94 W5        29.83S
SHELBYVILLE    PTCLDY    77  69  76 SW6       29.81S
ZIONSVILLE +   CLEAR     73  71  92 CALM      29.84R

$$

INZ033-034-041-042-049-050-058-059-240200-
EAST CENTRAL INDIANA

CITY           SKY/WX    TMP DP  RH WIND       PRES   REMARKS
MUNCIE         CLEAR     76  65  68 W8        29.82S
RICHMOND +     CLEAR     72  70  94 NW6       29.84R

$$

INZ060-061-067>069-081>083-085>088-240200-
SOUTHWEST INDIANA

CITY           SKY/WX    TMP DP  RH WIND       PRES   REMARKS
EVANSVILLE     PTCLDY    82  71  69 CALM      29.84S
HUNTINGBURG *+ CLEAR     79  74  84 CALM      29.84R

$$

INZ062-063-066-070>080-084-089>092-240200-
SOUTH CENTRAL AND SOUTHEAST INDIANA

CITY           SKY/WX    TMP DP  RH WIND       PRES   REMARKS
BEDFORD +      MOCLDY    77  64  65 NW12G32   29.88
BLOOMINGTON    MOCLDY    73  68  84 CALM      29.84S
MADISON *+     CLEAR     73  70  88 CALM      29.85S
NORTH VERNON + PTCLDY    72  70  94 CALM      29.83F
SEYMOUR +      CLEAR    N/A N/A N/A CALM      29.82S

$$





USA.gov is the U.S. government's official web portal to all federal, state and local government web resources and services.